This is the latest recevied weather packets stored in our database for station/object OK2ILA-14. If no packets are shown the sender has not sent any weather packets the latest 10 day(s).
| Time | Temp. | Humidity | Pressure | Rain* | Wind** | Luminosity | Snow |
|---|---|---|---|---|---|---|---|
| 1777868062 | 16.11° C | 42% | 1014.4 hPa | - | - | - | - |
| 1777867462 | 15° C | 43% | 1014.4 hPa | - | - | - | - |
| 1777866862 | 13.89° C | 45% | 1014.4 hPa | - | - | - | - |
| 1777866262 | 12.22° C | 47% | 1014.4 hPa | - | - | - | - |
| 1777865662 | 12.22° C | 46% | 1014.3 hPa | - | - | - | - |
| 1777865061 | 12.78° C | 44% | 1014.1 hPa | - | - | - | - |
| 1777864461 | 13.33° C | 44% | 1014.2 hPa | - | - | - | - |
| 1777863861 | 13.89° C | 43% | 1014.2 hPa | - | - | - | - |
| 1777863261 | 13.89° C | 43% | 1014.2 hPa | - | - | - | - |
| 1777862661 | 13.89° C | 43% | 1014.1 hPa | - | - | - | - |
| 1777862061 | 13.89° C | 43% | 1014.1 hPa | - | - | - | - |
| 1777861461 | 13.33° C | 43% | 1013.8 hPa | - | - | - | - |
| 1777860861 | 13.33° C | 42% | 1014 hPa | - | - | - | - |
| 1777860260 | 13.33° C | 42% | 1014 hPa | - | - | - | - |
| 1777859660 | 13.33° C | 42% | 1014 hPa | - | - | - | - |
| 1777859060 | 13.89° C | 41% | 1013.9 hPa | - | - | - | - |
| 1777858460 | 13.89° C | 42% | 1013.9 hPa | - | - | - | - |
| 1777857860 | 13.89° C | 41% | 1014 hPa | - | - | - | - |
| 1777857260 | 13.33° C | 42% | 1014 hPa | - | - | - | - |
| 1777856660 | 13.33° C | 41% | 1014 hPa | - | - | - | - |
| 1777856060 | 13.89° C | 40% | 1014 hPa | - | - | - | - |
| 1777855459 | 13.89° C | 41% | 1014 hPa | - | - | - | - |
| 1777854859 | 13.89° C | 41% | 1014 hPa | - | - | - | - |
| 1777854259 | 13.89° C | 41% | 1014.1 hPa | - | - | - | - |
| 1777853659 | 13.89° C | 40% | 1014.1 hPa | - | - | - | - |
* Rain since midnight (hover to see other rain measurements)
** Current wind speed in m/s (hover to see current wind gust speed)